TimeCST,TemperatureF,Dew PointF,Humidity,Sea Level PressureIn,VisibilityMPH,Wind Direction,Wind SpeedMPH,Gust SpeedMPH,PrecipitationIn,Events,Conditions,WindDirDegrees,DateUTC
12:15 AM,12.2,8.6,85,29.99,10.0,WSW,6.9,-,N/A,,Overcast,240,2013-01-02 06:15:00
12:35 AM,12.2,8.6,85,29.98,10.0,WSW,5.8,-,N/A,,Overcast,240,2013-01-02 06:35:00
12:55 AM,12.2,8.6,85,29.98,10.0,SW,5.8,-,N/A,,Overcast,230,2013-01-02 06:55:00
1:15 AM,12.2,8.6,85,29.98,10.0,WSW,5.8,-,N/A,,Overcast,240,2013-01-02 07:15:00
1:35 AM,12.2,8.6,85,29.97,10.0,SW,4.6,-,N/A,,Overcast,230,2013-01-02 07:35:00
1:55 AM,12.2,8.6,85,29.98,10.0,SW,3.5,-,N/A,,Overcast,230,2013-01-02 07:55:00
2:15 AM,12.2,10.4,92,29.97,10.0,SW,3.5,-,N/A,,Overcast,220,2013-01-02 08:15:00
2:35 AM,12.2,10.4,92,29.98,10.0,SW,4.6,-,N/A,,Overcast,220,2013-01-02 08:35:00
2:55 AM,14.0,10.4,86,29.98,10.0,SSW,3.5,-,N/A,,Overcast,210,2013-01-02 08:55:00
3:15 AM,14.0,10.4,86,29.98,10.0,SW,6.9,-,N/A,,Overcast,220,2013-01-02 09:15:00
3:35 AM,14.0,10.4,86,29.98,10.0,SSW,5.8,-,N/A,,Overcast,210,2013-01-02 09:35:00
3:55 AM,15.8,10.4,79,29.97,10.0,SSW,6.9,-,N/A,,Overcast,210,2013-01-02 09:55:00
4:15 AM,15.8,12.2,86,29.97,10.0,SSW,5.8,-,N/A,,Overcast,200,2013-01-02 10:15:00
4:35 AM,15.8,12.2,86,29.97,7.0,SSW,6.9,-,N/A,,Overcast,200,2013-01-02 10:35:00
4:55 AM,15.8,12.2,86,29.96,7.0,South,6.9,-,N/A,,Overcast,190,2013-01-02 10:55:00
5:15 AM,15.8,12.2,86,29.96,10.0,South,5.8,-,N/A,Snow,Light Snow,190,2013-01-02 11:15:00
5:35 AM,15.8,12.2,86,29.96,10.0,South,5.8,-,N/A,,Overcast,180,2013-01-02 11:35:00
5:55 AM,15.8,12.2,86,29.95,10.0,South,6.9,-,N/A,,Overcast,180,2013-01-02 11:55:00
6:15 AM,15.8,12.2,86,29.95,10.0,South,5.8,-,N/A,,Overcast,170,2013-01-02 12:15:00
6:35 AM,15.8,12.2,86,29.95,10.0,South,8.1,-,N/A,,Overcast,190,2013-01-02 12:35:00
6:55 AM,15.8,10.4,79,29.95,7.0,South,9.2,-,N/A,Snow,Light Snow,190,2013-01-02 12:55:00
7:15 AM,14.0,10.4,86,29.96,10.0,South,6.9,-,N/A,Snow,Light Snow,190,2013-01-02 13:15:00
7:35 AM,14.0,10.4,86,29.96,10.0,South,8.1,-,N/A,,Overcast,180,2013-01-02 13:35:00
7:55 AM,14.0,10.4,86,29.96,10.0,South,8.1,-,N/A,,Overcast,180,2013-01-02 13:55:00
8:15 AM,14.0,10.4,86,29.96,10.0,South,8.1,-,N/A,,Overcast,180,2013-01-02 14:15:00
8:35 AM,14.0,10.4,86,29.96,10.0,South,9.2,-,N/A,Snow,Light Snow,170,2013-01-02 14:35:00
9:15 AM,14.0,10.4,86,29.97,10.0,SSE,6.9,-,N/A,,Overcast,160,2013-01-02 15:15:00
9:35 AM,14.0,10.4,86,29.97,10.0,SSE,5.8,-,N/A,,Overcast,160,2013-01-02 15:35:00
9:55 AM,14.0,10.4,86,29.97,10.0,South,8.1,-,N/A,,Overcast,170,2013-01-02 15:55:00
10:15 AM,15.8,10.4,79,29.97,10.0,SSE,8.1,-,N/A,,Overcast,150,2013-01-02 16:15:00
10:35 AM,15.8,10.4,79,29.97,10.0,South,9.2,-,N/A,,Overcast,170,2013-01-02 16:35:00
10:55 AM,15.8,10.4,79,29.96,10.0,SSE,8.1,-,N/A,,Overcast,160,2013-01-02 16:55:00
11:15 AM,15.8,8.6,73,29.96,10.0,South,8.1,-,N/A,,Overcast,180,2013-01-02 17:15:00
11:35 AM,15.8,8.6,73,29.95,10.0,South,8.1,-,N/A,Snow,Light Snow,180,2013-01-02 17:35:00
11:55 AM,15.8,8.6,73,29.94,10.0,SSE,9.2,-,N/A,Snow,Light Snow,160,2013-01-02 17:55:00
12:15 PM,15.8,8.6,73,29.93,10.0,South,5.8,-,N/A,,Overcast,180,2013-01-02 18:15:00
12:35 PM,17.6,10.4,73,29.92,10.0,SSE,6.9,-,N/A,,Overcast,160,2013-01-02 18:35:00
12:55 PM,17.6,10.4,73,29.92,10.0,South,8.1,-,N/A,Snow,Light Snow,180,2013-01-02 18:55:00
1:15 PM,17.6,10.4,73,29.91,10.0,SSE,8.1,-,N/A,,Overcast,160,2013-01-02 19:15:00
1:35 PM,17.6,10.4,73,29.91,10.0,SSE,8.1,-,N/A,,Overcast,160,2013-01-02 19:35:00
1:55 PM,17.6,10.4,73,29.91,10.0,South,6.9,-,N/A,,Overcast,170,2013-01-02 19:55:00
2:15 PM,17.6,10.4,73,29.92,10.0,South,5.8,-,N/A,,Overcast,170,2013-01-02 20:15:00
2:35 PM,17.6,10.4,73,29.92,10.0,South,5.8,-,N/A,,Overcast,180,2013-01-02 20:35:00
2:55 PM,17.6,10.4,73,29.92,10.0,SSE,5.8,-,N/A,,Overcast,160,2013-01-02 20:55:00
3:15 PM,17.6,10.4,73,29.91,10.0,SSE,5.8,-,N/A,,Overcast,150,2013-01-02 21:15:00
3:35 PM,17.6,10.4,73,29.92,10.0,SSE,6.9,-,N/A,,Overcast,160,2013-01-02 21:35:00
3:55 PM,19.4,10.4,68,29.92,10.0,SSE,5.8,-,N/A,,Overcast,150,2013-01-02 21:55:00
4:15 PM,19.4,10.4,68,29.93,10.0,South,4.6,-,N/A,,Overcast,180,2013-01-02 22:15:00
4:35 PM,17.6,10.4,73,29.94,10.0,Calm,Calm,-,N/A,,Overcast,0,2013-01-02 22:35:00
5:15 PM,17.6,10.4,73,29.94,10.0,Calm,Calm,-,N/A,,Overcast,0,2013-01-02 23:15:00
5:35 PM,17.6,10.4,73,29.94,10.0,Calm,Calm,-,N/A,,Overcast,0,2013-01-02 23:35:00
5:55 PM,17.6,10.4,73,29.95,10.0,Calm,Calm,-,N/A,,Overcast,0,2013-01-02 23:55:00
6:15 PM,17.6,10.4,73,29.95,10.0,Calm,Calm,-,N/A,,Overcast,0,2013-01-03 00:15:00
6:35 PM,17.6,10.4,73,29.95,10.0,South,3.5,-,N/A,,Overcast,170,2013-01-03 00:35:00
6:55 PM,17.6,10.4,73,29.94,10.0,Calm,Calm,-,N/A,,Overcast,0,2013-01-03 00:55:00
7:15 PM,17.6,10.4,73,29.94,10.0,South,3.5,-,N/A,,Overcast,170,2013-01-03 01:15:00
7:55 PM,17.6,10.4,73,29.94,10.0,Calm,Calm,-,N/A,,Overcast,0,2013-01-03 01:55:00
8:15 PM,17.6,10.4,73,29.94,10.0,SSW,3.5,-,N/A,,Overcast,200,2013-01-03 02:15:00
8:35 PM,17.6,12.2,79,29.94,10.0,WSW,4.6,-,N/A,Snow,Light Snow,240,2013-01-03 02:35:00
8:55 PM,17.6,12.2,79,29.95,10.0,WSW,6.9,-,N/A,,Overcast,250,2013-01-03 02:55:00
9:15 PM,17.6,12.2,79,29.95,10.0,West,8.1,-,N/A,,Overcast,260,2013-01-03 03:15:00
9:35 PM,17.6,12.2,79,29.94,7.0,WSW,6.9,-,N/A,,Overcast,240,2013-01-03 03:35:00
9:55 PM,17.6,14.0,86,29.95,5.0,West,5.8,-,N/A,,Overcast,260,2013-01-03 03:55:00
10:15 PM,17.6,14.0,86,29.95,5.0,West,6.9,-,N/A,,Overcast,270,2013-01-03 04:15:00
10:35 PM,17.6,14.0,86,29.95,4.0,West,6.9,-,N/A,,Overcast,270,2013-01-03 04:35:00
10:55 PM,17.6,12.2,79,29.95,5.0,West,8.1,-,N/A,,Overcast,280,2013-01-03 04:55:00
11:15 PM,17.6,12.2,79,29.96,5.0,West,6.9,-,N/A,,Overcast,280,2013-01-03 05:15:00
11:35 PM,15.8,12.2,86,29.96,5.0,West,6.9,-,N/A,,Overcast,280,2013-01-03 05:35:00
11:55 PM,15.8,12.2,86,29.96,5.0,WNW,8.1,-,N/A,Snow,Light Snow,300,2013-01-03 05:55:00